Regional Weather Roundup
Issued by NWS

Home | Current Version | Previous Version | Graphics & Text | Print | Product List | Glossary On
Versions: 1 2 3 4 5 6 7 8 9 10 11 12 13 14 15 16 17 18 19 20 21 22 23 24 25 26 27 28 29 30 31 32 33 34 35 36 37 38 39 40 41 42 43 44 45 46 47 48 49 50
000
ASUS43 KIND 272109
RWRIN

WEATHER ROUNDUP FOR INDIANA
NATIONAL WEATHER SERVICE INDIANAPOLIS IN
500 PM EDT THU AUG 27 2015

NOTE: "FAIR" INDICATES FEW OR NO CLOUDS BELOW 12,000 FEET WITH NO
SIGNIFICANT WEATHER AND/OR OBSTRUCTIONS TO VISIBILITY.

* - STATION DOES NOT REPORT WEATHER SUCH AS PRECIPITATION OR FOG.

+ - STATION NOT QUALITY CONTROLLED BY THE NATIONAL WEATHER SERVICE.
    USE DATA WITH CAUTION...ESPECIALLY DEWPOINT AND RELATIVE
    HUMIDITY OBSERVATIONS.

INZ001>003-010>013-019-020-272200-
NORTHWEST INDIANA

CITY           SKY/WX    TMP DP  RH WIND       PRES   REMARKS
GARY /AIRPORT/ PTSUNNY   72  55  56 NE6       30.16F
KNOX *+        FAIR      72  52  49 E5        30.15F
LA PORTE +     FAIR      71  56  57 CALM      30.17S
MICHIGAN CITY+ CLOUDY    70  54  56 CALM      30.17S
MONTICELLO +   PTSUNNY   74  59  58 E3        30.14S
RENSSELAER +   FAIR      73  55  53 CALM      30.15S
VALPARAISO     FAIR      73  56  54 CALM      30.16F

$$

LMZ046-743>745-272200-
SOUTHERN LAKE MICHIGAN

STATION/POSITION TIME  TEMP    WIND        PRES    WAVE
                       AIR SEA DIR/SP/G            HT
                 (UTC) (F)     (DEG/KT/KT) (MB)    (FT)
BURNS HARBOR     2000   67      40/  5/  6 1021.7F
MICHIGAN CITY    2000   67     340/  3/  4   N/A
5NW MICH CITY    2100   67 72  340/  2/  4   N/A     1

$$

INZ004-005-014>016-021>024-272200-
NORTH CENTRAL INDIANA

CITY           SKY/WX    TMP DP  RH WIND       PRES   REMARKS
ELKHART        PTSUNNY   70  54  56 E5        30.17F
GOSHEN         PTSUNNY   69  54  58 CALM      30.17F
LOGANSPORT +   FAIR      73  50  43 E5        30.15F
PERU/GRISSOM   PTSUNNY   74  58  57 NE1       30.14F
ROCHESTER +    FAIR      77  54  44 SE3       30.15F
SOUTH BEND     CLOUDY    70  56  61 E8        30.17F
WARSAW +       PTSUNNY   70  55  60 NE3       30.16F

$$

INZ006>009-017-018-025>027-272200-
NORTHEAST INDIANA

CITY           SKY/WX    TMP DP  RH WIND       PRES   REMARKS
ANGOLA *+      PTSUNNY   73  66  78 W3        30.18R
AUBURN +       FAIR      70  52  52 NW3       30.18S
FORT WAYNE     PTSUNNY   72  55  55 CALM      30.17F
HUNTINGTON +   PTSUNNY   73  52  48 E5        30.16F

$$

INZ028-029-035-036-043>045-051>053-272200-
WEST CENTRAL INDIANA

CITY           SKY/WX    TMP DP  RH WIND       PRES   REMARKS
CRAWFORDSVL +  FAIR      75  53  47 SW3       30.13F
GREENCASTLE +  FAIR      73  52  46 CALM      30.13F
LAFAYETTE      PTSUNNY   77  56  48 SE5       30.13F
TERRE HAUTE    FAIR      78  56  46 CALM      30.12F

$$

INZ030>032-037>040-046>048-054>057-064-065-272200-
CENTRAL INDIANA

CITY           SKY/WX    TMP DP  RH WIND       PRES   REMARKS
COLUMBUS       MOSUNNY   77  50  38 CALM      30.13F
FRANKFORT +    FAIR      76  58  54 CALM      30.16F
GREENWOOD *+   CLOUDY    77  52  41 CALM      30.14F
INDIANAPOLIS   PTSUNNY   78  54  43 W3        30.12F
-EAGLE CREEK   FAIR      78  56  46 CALM      30.12F
KOKOMO *+      FAIR      73  55  53 S5        30.15F
MARION +       FAIR      74  45  35 S3        30.16F
MT COMFORT *+  FAIR      75  48  38 SW3       30.14F
SHELBYVILLE    FAIR      79  57  46 VRB3      30.13F
ZIONSVILLE +   PTSUNNY   77  56  47 CALM      30.14F

$$

INZ033-034-041-042-049-050-058-059-272200-
EAST CENTRAL INDIANA

CITY           SKY/WX    TMP DP  RH WIND       PRES   REMARKS
MUNCIE         PTSUNNY   72  57  59 E7        30.15F

$$

INZ060-061-067>069-081>083-085>088-272200-
SOUTHWEST INDIANA

CITY           SKY/WX    TMP DP  RH WIND       PRES   REMARKS
EVANSVILLE     FAIR      81  56  42 E5        30.11F
HUNTINGBURG *+ PTSUNNY   81  59  47 NE7       30.11F
WASHINGTON +   PTSUNNY   80  48  32 CALM      30.11F

$$

INZ062-063-066-070>080-084-089>092-272200-
SOUTH CENTRAL AND SOUTHEAST INDIANA

CITY           SKY/WX    TMP DP  RH WIND       PRES   REMARKS
BLOOMINGTON    FAIR      78  57  48 NW3       30.13F
MADISON *+     PTSUNNY   77  54  44 S3        30.15F
NORTH VERNON + FAIR      77  55  47 CALM      30.14F
SEYMOUR +      CLOUDY    79  55  44 E5        30.12F

$$




USA.gov is the U.S. government's official web portal to all federal, state and local government web resources and services.